Weather in Berdysh

Russia / Komi Republic     61°36′31″N   57°59′03″E
temp.,
°C
wind,
m/s
gust,
m/s
humid.,
%
clouds,
%
prec.,
mm/h
press.,
hPa
HPBL,
m
15 may, sat
sat1500:00+12se249699 3.1 101688
03:00+13sse1197100 7.2 101641
06:00+15s359020 0.6 1015246
09:00+21w3562100 0.6 1014966
12:00+24w4744100 0.0 10142516
15:00+19wnw4969100 0.7 1014442
18:00+17wnw027918 2.7 101483
21:00+15s1186100 2.8 101317
16 may, sun
sun1600:00+14sw2995100 2.6 1014376
03:00+13wsw2596100 2.6 1015173
06:00+16ssw238396 0.0 1015373
09:00+19ssw356871 0.1 1014900
12:00+21sw486799 0.1 10131384
15:00+24sw51054100 0.3 10111790
18:00+19wsw51274100 1.9 10101097
21:00+14ssw2382100 4.8 101264
17 may, mon
mon1700:00+15sw3128824 0.1 1011314
03:00+14sw3992100 0.1 1012256
06:00+17sw3107736 0.0 1012569
09:00+21wsw59528 0.0 10121566
12:00+23w693885 0.0 10112913
15:00+21w5949100 0.1 10121634
18:00+18w496311 0.6 1013506
21:00+14w12845 0.8 101411
18 may, tue
tue1800:00+12sw128846 0.2 101412
03:00+12w119368 1.5 101510
06:00+16nw3775100 1.4 1015271
09:00+18nw3662100 2.8 1016838
12:00+15nnw257667 0.9 1017318
15:00+19nnw345220 0.9 10181266
18:00+17ne23620 0.0 1018120
21:00+13e11820 0.0 102010
19 may, wed
wed1900:00+11se25935 0.0 1021112
03:00+10se2293100 0.0 102253
06:00+15sse357219 0.0 1021362
09:00+20s3454100 0.0 1020902
12:00+24ssw344111 0.0 10191416
15:00+25sw4541100 0.0 10181714
18:00+23ssw41053100 0.0 1017450
21:00+18s3116927 0.0 1017215